[[{"header":{"parameterUnit":"m.s-1","parameterCategory":1,"la1":30.2991,"la2":30.254,"lo1":-89.0895,"lo2":-89.0444,"dy":0.0017,"dx":0.0017,"nx":28,"ny":28,"refTime":"2023-09-28T03:00:00:Z","depth":0,"parameterNumber":2,"parameterNumberName":"U-component_of_WINDS"},"data":[0,0,0,0,0,0,0,0,0,0,0,0,0,0,0,0,0,0,0,0,0,0,0,0,0,0,0,0,0,0,0,0,0,0,0,0,0,0,0,0,0,0,0,0,0,0,0,0,0,0,0,0,0,0,0,0,0,0,-4.75,-4.7501,0,-4.7523,-4.7524,-4.7524,-4.7351,-4.7346,-4.7341,-4.7337,-4.7358,-4.7363,-4.7368,0,0,0,0,0,0,0,0,0,0,0,0,0,-4.7304,-4.7309,-4.75,-4.7501,-4.7501,-4.7523,-4.7524,-4.7524,-4.7352,-4.7346,-4.734,-4.7335,-4.7357,-4.7363,-4.7369,0,0,0,0,0,0,0,0,0,0,0,0,0,-4.7365,-4.7311,-4.75,-4.7418,-4.7411,-4.7523,-4.7524,-4.7524,-4.7353,-4.7346,-4.7339,-4.7332,-4.7355,-4.7362,-4.737,-4.7562,0,0,-4.7393,-4.7396,0,0,0,0,0,0,0,0,-4.7362,-4.7372,-4.743,-4.7424,-4.7416,-4.7427,-4.7462,-4.7537,-4.7355,-4.7375,-4.7337,-4.7328,-4.7387,-4.7392,-4.7412,-4.7563,-4.7564,-4.7394,-4.7398,-4.7402,-4.7404,0,0,0,0,0,0,0,-4.7358,-4.737,-4.7509,-4.7431,-4.7422,-4.7379,-4.7379,-4.7476,-4.7421,-4.7373,-4.736,-4.7365,-4.7382,-4.7405,-4.7411,-4.7564,-4.7393,-4.74,-4.7405,-4.7408,-4.7872,-4.788,0,0,0,0,0,0,-4.7365,-4.7368,-4.7508,-4.751,-4.737,-4.7388,-4.7389,-4.7431,-4.742,-4.7411,-4.7372,-4.7357,-4.7395,-4.7402,-4.7411,-4.7633,-4.7401,-4.7409,-4.7413,-4.7865,-4.7874,-4.7882,0,0,0,0,0,0,-4.7361,-4.7379,-4.7508,-4.7436,-4.7449,-4.7399,-4.7448,-4.7435,-4.7458,-4.7419,-4.7408,-4.7405,-4.739,-4.74,-4.7525,-4.7632,-4.7412,-4.7419,-4.7855,-4.7867,-4.7878,-4.8082,0,0,0,0,0,0,-4.7357,-4.7379,-4.7452,-4.7439,-4.7453,-4.7623,-4.7454,-4.7441,-4.7472,-4.7453,-4.7448,-4.744,-4.7385,-4.7515,-4.7533,-4.7638,-4.7425,-4.7845,-4.7861,-4.7874,-4.8065,-4.8099,-4.8128,0,0,0,0,0,-4.735,-4.7508,-4.7457,-4.7475,-4.7544,-4.7629,-4.7638,-4.7572,-4.7481,-4.7553,-4.7528,-4.744,-4.7618,-4.7529,-4.7548,-4.7657,-4.7838,-4.7856,-4.7873,-4.8051,-4.8092,-4.8127,0,0,0,0,0,0,-4.7534,-4.7505,-4.7447,-4.7606,-4.7622,-4.76,-4.7689,-4.7618,-4.7659,-4.764,-4.7556,-4.7556,-4.7695,-4.7689,-4.759,-4.7842,-4.7712,-4.7734,-4.7841,-4.7879,-4.791,-4.7908,-4.7431,0,0,0,0,0,-4.7594,-4.7667,-4.7637,-4.778,-4.779,-4.774,-4.7774,-4.7723,-4.7735,-4.774,-4.7724,-4.7739,-4.7798,-4.7839,-4.7891,-4.8064,-4.8059,-4.8149,-4.818,-4.8206,-4.8225,-4.8315,-4.8353,-4.794,-4.794,-4.7939,0,0,-4.7717,-4.771,-4.7761,-4.7816,-4.7822,-4.7899,-4.7746,-4.7833,-4.7889,-4.7753,-4.787,-4.786,-4.787,-4.802,-4.8085,-4.8019,-4.8339,-4.8228,-4.8249,-4.8254,-4.8337,-4.8376,-4.8411,-4.7952,-4.7949,-4.7948,0,0,-4.7979,-4.7982,-4.81,-4.811,-4.8121,-4.8086,-4.8115,-4.8105,-4.8093,-4.8209,-4.8108,-4.8173,-4.8277,-4.8288,-4.8308,-4.8576,-4.8495,-4.8595,-4.8758,-4.8846,-4.8878,-4.8907,-4.9001,-4.9036,-4.8615,-4.8616,-4.8616,0,-4.8129,-4.8241,-4.817,-4.8264,-4.8291,-4.8174,-4.8292,-4.8304,-4.8333,-4.8353,-4.8279,-4.8407,-4.8406,-4.8556,-4.8621,-4.8642,-4.8671,-4.8594,-4.888,-4.8908,-4.8933,-4.9021,-4.9057,-4.8628,-4.8626,-4.8625,-4.8624,0,-4.8425,-4.8505,-4.8599,-4.8629,-4.8667,-4.8773,-4.8717,-4.8764,-4.871,-4.8682,-4.8802,-4.8797,-4.8845,-4.8878,-4.8825,-4.9021,-4.8979,-4.8894,-4.8761,-4.8986,-4.9067,-4.9101,-4.8645,-4.864,-4.8637,-4.8634,0,0,-4.8802,-4.8793,-4.8828,-4.884,-4.8845,-4.8904,-4.9005,-4.9053,-4.9094,-4.9118,-4.9199,-4.929,-4.9211,-4.9234,-4.9182,-4.926,-4.947,-4.9164,-4.9163,-4.922,-4.9683,-4.9746,-4.9786,-4.9418,-4.9424,-4.9429,-4.9682,0,-4.9056,-4.9228,-4.9167,-4.9342,-4.9413,-4.9303,-4.939,-4.9402,-4.938,-4.9437,-4.9411,-4.9476,-4.9369,-4.9381,-4.9454,-4.9429,-4.9562,-4.9411,-4.9491,-4.9495,-4.9489,-4.9829,-4.9895,-5.0133,-4.9713,-4.9719,-4.9722,0,-4.9375,-4.9412,-4.9595,-4.9586,-4.9614,-4.9694,-4.9733,-4.9789,-4.98,-4.9778,-4.9804,-4.9735,-4.9832,-4.9702,-4.9834,-4.9732,-4.9762,-4.9755,-4.9763,-4.9766,-4.9621,-4.9839,-5.0208,-5.0243,-4.9772,-4.9768,-4.9765,0,-4.963,-4.9725,-4.9846,-4.986,-4.9854,-4.9913,-4.9913,-4.9916,-4.9949,-4.9984,-5.0004,-5.0049,-5.0074,-5.011,-5.0055,-4.9966,-5.0194,-5.006,-5.0177,-5.0179,-5.0228,-5.0226,-5.0606,-5.0252,-5.0252,-5.0251,-5.025,0,-4.9918,-5.0034,-4.996,-5.0035,-5.016,-5.0089,-5.0216,-5.0203,-5.0208,-5.0277,-5.0185,-5.0252,-5.0176,-5.0235,-5.0193,-5.0308,-5.032,-5.0304,-5.0291,-5.0311,-5.0313,-5.0327,-5.0309,-5.026,-5.0258,-5.0256,-5.0255,0,-5.0223,-5.0178,-5.0303,-5.0287,-5.0286,-5.0379,-5.0365,-5.0433,-5.0404,-5.0493,-5.051,-5.0465,-5.053,-5.048,-5.0544,-5.0515,-5.0666,-5.0631,-5.0663,-5.0652,-5.0772,-5.0761,-5.1172,-5.1222,-5.084,-5.0843,-5.0846,0,-5.0409,-5.0495,-5.0489,-5.0529,-5.0535,-5.0601,-5.0634,-5.0568,-5.0606,-5.0626,-5.0691,-5.0748,-5.079,-5.09,-5.0872,-5.0921,-5.0885,-5.1026,-5.0891,-5.0908,-5.0884,-5.0879,-5.0886,-5.1052,-5.1057,-5.106,-5.1063,0,-5.0743,-5.0717,-5.0769,-5.0814,-5.0856,-5.0888,-5.0912,-5.095,-5.0883,-5.0931,-5.0996,-5.103,-5.1095,-5.1153,-5.1192,-5.1191,-5.1116,-5.1107,-5.1136,-5.1156,-5.117,-5.1162,-5.0735,-5.1097,-5.1093,-5.1091,-5.1089,-5.1088,-5.0992,-5.1063,-5.107,-5.113,-5.1142,-5.1167,-5.123,-5.121,-5.1264,-5.1312,-5.127,-5.1349,-5.1357,-5.1402,-5.141,-5.147,-5.1412,-5.1455,-5.1466,-5.1477,-5.1493,-5.1163,-5.1478,-5.1477,-5.1476,-5.1475,-5.1474,0,-5.1319,-5.1318,-5.1375,-5.1413,-5.1461,-5.1388,-5.1411,-5.1455,-5.1526,-5.1541,-5.1585,-5.166,-5.1716,-5.1694,-5.1743,-5.1796,-5.1762,-5.181,-5.1805,-5.1805,-5.1543,-5.1512,-5.1836,-5.1836,-5.1836,-5.1836,-5.1836,-5.1836,-5.1495,-5.1611,-5.1586,-5.1707,-5.1705,-5.1782,-5.1801,-5.1824,-5.1835,-5.1923,-5.197,-5.1955,-5.1955,-5.2003,-5.2051,-5.2043,-5.2064,-5.2125,-5.2104,-5.186,-5.1824,-5.179,-5.176,-5.213,-5.2131,-5.236,-5.2362,-5.2364]},{"header":{"parameterUnit":"m.s-1","parameterCategory":1,"la1":30.2991,"la2":30.254,"lo1":-89.0895,"lo2":-89.0444,"dy":0.0017,"dx":0.0017,"nx":28,"ny":28,"refTime":"2023-09-28T03:00:00:Z","depth":0,"parameterNumber":3,"parameterNumberName":"V-component_of_WINDS"},"data":[0,0,0,0,0,0,0,0,0,0,0,0,0,0,0,0,0,0,0,0,0,0,0,0,0,0,0,0,0,0,0,0,0,0,0,0,0,0,0,0,0,0,0,0,0,0,0,0,0,0,0,0,0,0,0,0,0,0,-0.5928,-0.5929,0,-0.6022,-0.6023,-0.6024,-0.6082,-0.6082,-0.6082,-0.6083,-0.6182,-0.6184,-0.6187,0,0,0,0,0,0,0,0,0,0,0,0,0,-0.5803,-0.5805,-0.5928,-0.593,-0.5931,-0.6022,-0.6023,-0.6024,-0.6082,-0.6082,-0.6082,-0.6083,-0.6181,-0.6184,-0.6187,0,0,0,0,0,0,0,0,0,0,0,0,0,-0.5873,-0.5805,-0.5928,-0.597,-0.5975,-0.6021,-0.6023,-0.6025,-0.6082,-0.6082,-0.6082,-0.6083,-0.618,-0.6184,-0.6187,-0.6201,0,0,-0.6198,-0.62,0,0,0,0,0,0,0,0,-0.5869,-0.5877,-0.5963,-0.5967,-0.5973,-0.604,-0.6015,-0.6084,-0.6081,-0.6041,-0.6083,-0.6083,-0.6135,-0.6142,-0.6159,-0.6205,-0.621,-0.6198,-0.6201,-0.6202,-0.6203,0,0,0,0,0,0,0,-0.5864,-0.5874,-0.5966,-0.5964,-0.597,-0.5985,-0.5996,-0.6028,-0.6085,-0.6045,-0.6049,-0.6059,-0.6138,-0.6155,-0.6162,-0.6211,-0.6198,-0.6202,-0.6204,-0.6205,-0.6273,-0.6272,0,0,0,0,0,0,-0.5852,-0.5869,-0.5963,-0.5968,-0.5921,-0.5987,-0.5999,-0.6018,-0.6084,-0.6095,-0.6059,-0.6061,-0.6149,-0.6157,-0.6165,-0.6185,-0.6202,-0.6206,-0.6208,-0.6273,-0.6273,-0.6272,0,0,0,0,0,0,-0.5849,-0.586,-0.5959,-0.592,-0.5934,-0.5989,-0.601,-0.602,-0.6038,-0.6095,-0.6105,-0.6066,-0.615,-0.616,-0.6191,-0.6189,-0.6207,-0.621,-0.6273,-0.6273,-0.6272,-0.6224,0,0,0,0,0,0,-0.5845,-0.5858,-0.5863,-0.592,-0.5936,-0.5982,-0.601,-0.6021,-0.6043,-0.6048,-0.6105,-0.6115,-0.6151,-0.6185,-0.6195,-0.6195,-0.6213,-0.6274,-0.6273,-0.6273,-0.6226,-0.6222,-0.6219,0,0,0,0,0,-0.584,-0.5847,-0.5863,-0.5874,-0.5943,-0.5982,-0.5991,-0.6031,-0.6043,-0.6049,-0.6085,-0.6113,-0.6188,-0.6188,-0.6199,-0.62,-0.6274,-0.6273,-0.6273,-0.6228,-0.6223,-0.6219,0,0,0,0,0,0,-0.579,-0.5855,-0.5874,-0.5899,-0.5934,-0.5991,-0.6,-0.6025,-0.6059,-0.6062,-0.6112,-0.6124,-0.615,-0.6178,-0.6177,-0.6216,-0.6234,-0.6235,-0.6197,-0.6192,-0.6188,-0.6181,-0.6216,0,0,0,0,0,-0.5782,-0.5807,-0.5863,-0.5879,-0.5896,-0.5944,-0.5963,-0.5991,-0.603,-0.6046,-0.6085,-0.6123,-0.6155,-0.6175,-0.6208,-0.6231,-0.6244,-0.6237,-0.6233,-0.6229,-0.623,-0.6244,-0.6241,-0.627,-0.627,-0.627,0,0,-0.5765,-0.5804,-0.5817,-0.587,-0.5901,-0.5926,-0.5957,-0.5983,-0.6003,-0.605,-0.6081,-0.6111,-0.6157,-0.6183,-0.6197,-0.6207,-0.6225,-0.6228,-0.6225,-0.6228,-0.6243,-0.624,-0.6237,-0.6269,-0.6269,-0.6269,0,0,-0.5748,-0.5779,-0.5796,-0.5826,-0.5872,-0.5904,-0.5908,-0.5961,-0.5982,-0.6013,-0.605,-0.6074,-0.6129,-0.616,-0.6182,-0.6175,-0.6202,-0.6185,-0.6165,-0.6178,-0.6176,-0.6174,-0.6172,-0.617,-0.6185,-0.6185,-0.6185,0,-0.5722,-0.5761,-0.5802,-0.5826,-0.5848,-0.5891,-0.5908,-0.5936,-0.599,-0.6005,-0.6016,-0.6084,-0.6118,-0.6152,-0.615,-0.6167,-0.6174,-0.6179,-0.6172,-0.6171,-0.617,-0.6168,-0.6167,-0.6183,-0.6183,-0.6183,-0.6184,0,-0.5727,-0.5753,-0.5762,-0.5811,-0.5835,-0.5855,-0.59,-0.5919,-0.5945,-0.5976,-0.6007,-0.6049,-0.6091,-0.6101,-0.6127,-0.6139,-0.6144,-0.6163,-0.6182,-0.6164,-0.6164,-0.6163,-0.6179,-0.618,-0.6181,-0.6182,0,0,-0.5682,-0.5753,-0.5755,-0.5778,-0.583,-0.5852,-0.5875,-0.5914,-0.5929,-0.5965,-0.5986,-0.603,-0.6048,-0.6073,-0.6103,-0.6114,-0.6106,-0.6132,-0.6134,-0.6126,-0.6121,-0.6107,-0.6105,-0.6124,-0.6124,-0.6124,-0.6117,0,-0.5672,-0.5714,-0.5751,-0.5779,-0.5804,-0.5844,-0.5864,-0.5899,-0.5928,-0.5954,-0.5988,-0.6018,-0.6039,-0.6055,-0.6068,-0.6104,-0.6106,-0.6105,-0.6144,-0.6145,-0.6131,-0.6105,-0.609,-0.6082,-0.6117,-0.6117,-0.6117,0,-0.5667,-0.5699,-0.5729,-0.5779,-0.5791,-0.5807,-0.5846,-0.587,-0.5911,-0.5932,-0.5959,-0.599,-0.6017,-0.6033,-0.607,-0.6069,-0.6087,-0.6107,-0.6108,-0.6113,-0.613,-0.611,-0.608,-0.6079,-0.6117,-0.6117,-0.6117,0,-0.5631,-0.5682,-0.5707,-0.5725,-0.5783,-0.5794,-0.5819,-0.586,-0.5881,-0.5915,-0.5929,-0.5966,-0.5987,-0.6015,-0.6055,-0.6063,-0.6089,-0.6108,-0.6107,-0.6106,-0.6111,-0.611,-0.6084,-0.6122,-0.6122,-0.6122,-0.6122,0,-0.5617,-0.5634,-0.5691,-0.5706,-0.5726,-0.5769,-0.5788,-0.5817,-0.5852,-0.5874,-0.5912,-0.5932,-0.5984,-0.601,-0.6042,-0.6068,-0.6077,-0.6095,-0.6104,-0.6092,-0.609,-0.6105,-0.6106,-0.6122,-0.6122,-0.6122,-0.6122,0,-0.558,-0.5619,-0.5648,-0.57,-0.5714,-0.5726,-0.5771,-0.5788,-0.5819,-0.5846,-0.5855,-0.5904,-0.5937,-0.598,-0.6027,-0.6049,-0.6071,-0.6084,-0.6057,-0.6062,-0.6058,-0.6058,-0.6042,-0.6042,-0.6079,-0.6078,-0.6078,0,-0.5569,-0.5582,-0.5635,-0.5651,-0.5675,-0.5701,-0.5722,-0.5765,-0.5786,-0.5832,-0.5843,-0.5878,-0.5909,-0.596,-0.6001,-0.6037,-0.6051,-0.6043,-0.6057,-0.6045,-0.6051,-0.605,-0.6051,-0.6039,-0.6039,-0.6038,-0.6038,0,-0.5544,-0.5562,-0.559,-0.5625,-0.5648,-0.5678,-0.571,-0.5721,-0.5771,-0.5792,-0.5825,-0.5849,-0.5896,-0.5931,-0.5972,-0.5999,-0.6027,-0.6033,-0.6035,-0.6023,-0.6007,-0.6015,-0.6047,-0.6033,-0.6034,-0.6034,-0.6034,-0.6034,-0.552,-0.5533,-0.5572,-0.5602,-0.563,-0.5658,-0.5676,-0.5708,-0.5736,-0.5777,-0.58,-0.5833,-0.5873,-0.5931,-0.5956,-0.5983,-0.5994,-0.5996,-0.5997,-0.5997,-0.5993,-0.6002,-0.5991,-0.5991,-0.5991,-0.5991,-0.5992,0,-0.5497,-0.5523,-0.555,-0.5592,-0.5616,-0.5638,-0.5674,-0.5692,-0.572,-0.5754,-0.5783,-0.5821,-0.5855,-0.5897,-0.5934,-0.5947,-0.5961,-0.5956,-0.5955,-0.5961,-0.5982,-0.5976,-0.5944,-0.5944,-0.5944,-0.5944,-0.5944,-0.5944,-0.5488,-0.5512,-0.5534,-0.5572,-0.5599,-0.563,-0.5648,-0.5675,-0.5702,-0.5742,-0.577,-0.5797,-0.5835,-0.5875,-0.5907,-0.5919,-0.5931,-0.5922,-0.5937,-0.5956,-0.596,-0.5964,-0.5959,-0.5924,-0.5924,-0.5915,-0.5915,-0.5915]}]]